Location: Demmingen
(48.6757°N, 10.4375°E)
Time: 20:30:35
(UTC+00:00)

ADEOS II - Pass Details

Date: 23 May 2024
Orbit: 796 x 798 km, 98.7° (Epoch: 23 June)

Event Time Altitude Azimuth Distance (km) Brightness Sun altitude
Rises 01:12:26 0° 19° (NNE) 3,313 7.0 -15.9°
Reaches altitude 10° 01:14:53 10° 26° (NNE) 2,378 5.9 -15.7°
Maximum altitude 01:19:55 45° 99° (E) 1,073 2.9 -15.3°
Enters shadow 01:24:18 13° 169° (S) 2,139 3.9 -14.9°
